Regional Weather Roundup
Issued by NWS

Home | Current Version | Previous Version | Text Only | Print | Product List | Glossary On
Versions: 1 2 3 4 5 6 7 8 9 10 11 12 13 14 15 16 17 18 19 20 21 22 23 24 25 26 27 28 29 30 31 32 33 34 35 36 37 38 39 40 41 42 43 44 45 46 47 48 49 50
000
ASUS43 KFSD 250502
RWRSD

WEATHER ROUNDUP FOR SOUTH DAKOTA
NATIONAL WEATHER SERVICE SIOUX FALLS SD
1100 PM CST FRI NOV 24 2017

NOTE: "FAIR" INDICATES FEW OR NO CLOUDS BELOW 12,000 FEET WITH NO
SIGNIFICANT WEATHER AND/OR OBSTRUCTIONS TO VISIBILITY.


SDZ001>005-009-010-012>017-250600-
NORTHWEST AND NORTH CENTRAL SOUTH DAKOTA

CITY           SKY/WX    TMP DP  RH WIND       PRES   REMARKS
BUFFALO          N/A     32  25  75 W7        29.91R WCI  26
FAITH            N/A     34  29  82 W13       29.98R WCI  25
MOBRIDGE       CLEAR     33  28  81 NW5       29.90R WCI  29
$$

SDZ012>016-024>037-041>051-057-063-072>074-250600-
SOUTHWEST AND SOUTH CENTRAL SOUTH DAKOTA

CITY           SKY/WX    TMP DP  RH WIND       PRES   REMARKS
RAPID CTY ARPT CLEAR     33  22  63 NW8       30.01R WCI  26
PIERRE         CLEAR     37  33  85 W10       29.96R
CUSTER         CLEAR     30  14  51 CALM      30.02R
ELLSWORTH AFB  CLEAR     31  22  69 W6        30.00R WCI  25
PHILIP         CLEAR     31  28  89 W6        30.00R WCI  25
PINE RIDGE     CLEAR     22  19  89 CALM      30.04R
SPEARFISH      FAIR      32  23  69 S5        30.01R WCI  27
WINNER         FAIR      38  30  73 W8        29.99R
$$

SDZ004>011-016>023-039-040-250600-
NORTHEAST SOUTH DAKOTA

CITY           SKY/WX    TMP DP  RH WIND       PRES   REMARKS
ABERDEEN       PTCLDY    37  30  75 W8        29.89R
WATERTOWN      PTCLDY    38  32  79 W9        29.85R
BROOKINGS      PTCLDY    40  32  73 NW9       29.87S
SISSETON         N/A     43  32  65 NW14      29.83R
$$

SDZ017-020-022-023-036>040-048>070-250600-
SOUTHEAST SOUTH DAKOTA

CITY           SKY/WX    TMP DP  RH WIND       PRES   REMARKS
SIOUX FALLS    CLOUDY    42  34  73 NW9       29.91R
HURON          CLEAR     33  29  85 W12       29.91R WCI  24
CHAMBERLAIN    CLEAR     40  35  81 NW7       29.97R
MITCHELL       PTCLDY    40  33  76 W9        29.95R
YANKTON        CLOUDY    40  33  76 NW10      29.95R
$$

ABBREVIATIONS USED IN REMARKS
   TC - TEMPERATURE IN CELSIUS
  WCI - WIND CHILL INDEX
   HX - HEAT INDEX
  VSB - VISIBILITY





USA.gov is the U.S. government's official web portal to all federal, state and local government web resources and services.